FENGYUN 1C DEB, 29992

Orbit data source: Space-Track

FENGYUN 1C DEB, 29992 is space debris in SSO originally from a launch on Mon, 10 May 1999 UTC launched from the Taiyaun Space Center, China (TSC). Fengyun 1C debris stems from the Chinese weather satellite Fengyun-1C, which was intentionally destroyed by a Chinese anti-satellite missile in 2007. This event dramatically increased the amount of space debris, with thousands of trackable fragments posing hazards to satellites and human spaceflight. The Fengyun 1C debris cloud has become a focal point in discussions about space sustainability and the need for international regulations to prevent the creation of new debris.

Loading next visibility...
Identifier
29992, 1999-025LS
Orbit
SSO
Country
Flag of CNCN / PRC
Related business
Manufacturer
Unknown
Mission
Spacecraft
Bus & Motor
Unknown
Mass
Unknown
Launch date (UTC)
1999-05-10 (27 years ago)
Launch vehicle
Unknown
Launch site
Taiyaun Space Center, China (TSC)
Object type
Payload
Rocket body
Debris
Shape & HBR
Unknown shape, 0.1 m
Radar Cross Section
Medium (>0.1 m² and <1 m²)

Expand to show TLE details & history
Last TLE update: 15 hours ago

TLE from 15 hours ago
0 FENGYUN 1C DEB
1 29992U 99025LS  26150.95876808  .00000134  00000-0  93244-4 0  9995
2 29992  98.7381 146.6640 0089529  48.2578 340.2631 14.11679058997751
Epoch: 2026-05-30T23:00Z
TLE epoch observation values (Epoch: 2026-05-30T23:00:37.562Z)
Latitude
27.85832°
Longitude
-91.5947°
Altitude
796.152 km
Speed
7.489 km/s
True Right ascension
09h 28m 06s
True Declination
27° 43' 02"
Sunlit
Object was in daylight at epoch
Visualization orbit readout
Latitude
Unknown
Longitude
Unknown
Altitude
Unknown
Speed
Unknown
Apparent Right ascension
Unknown
Apparent Declination
Unknown
Sunlit
N/A
Visualization observer readout
Local Sidereal Time
23:37:45
Azimuth
Unknown
Elevation
Unknown
Doppler factor
Unknown
Orbital elements
Apogee altitude
915.522 km
Perigee altitude
786.082 km
Semi-major axis
7,228.939 km
Eccentricity
0.00895
Inclination
98.7381°
RAAN
146.664°
Arg. of periapsis
48.2578°
True anomaly
339.91296°
Mean anomaly
340.2631°
Eccentric anomaly
340.0884°
Mean motion
3.53127 °/min
Orbital period
101.95 mins
BSTAR
0.000093244
Loading maneuver chart data...
Computing Atmospheric mass density...
Loading historical data...
Loading historical data...
Loading historical data...
Loading historical data...
Loading historical data...
Loading historical data...
Loading historical data...

Documentation

Showing up to 5 results
|